User: anonymous   Login
Location: Unspecified
(0.0000°N, 0.0000°E)
Time: 17:01:21
(UTC+00:00)
Language:

FORMOSAT 3D - Orbit

View from above orbital plane
View from above orbital plane
View from above satellite
View from above satellite

Ground track
Ground track

The orbit data is extracted from the following two-line orbital elements,

1 29050U 06011D   17264.72294710  .00000161  00000-0  44474-4 0  9991
2 29050  72.0164 316.2274 0051097 339.1692  20.7377 14.58552792610649
Epoch (UTC): 21 September 2017 17:21:02
Eccentricity: 0.0051097
inclination: 72.0164°
perigee height: 661 km
apogee height: 734 km
right ascension of ascending node: 316.2274°
argument of perigee: 339.1692°
revolutions per day: 14.58552792
mean anomaly at epoch: 20.7377°
orbit number at epoch: 61064

The dashed part of the orbit path shows where the satellite is in the earth's shadow,  

DLR